This is the latest recevied weather packets stored in our database for station/object F8BJE-13. If no packets are shown the sender has not sent any weather packets the latest 10 day(s).
| Time | Temp. | Humidity | Pressure | Rain* | Wind** | Luminosity | Snow |
|---|---|---|---|---|---|---|---|
| 1777953456 | 10.56° C | 98% | 1010.2 hPa | 0.25 mm | - | - | - |
| 1777951655 | 10.56° C | 97% | 1010.4 hPa | 0.76 mm | - | - | - |
| 1777949855 | 10.56° C | 96% | 1010.7 hPa | 1.27 mm | - | - | - |
| 1777948056 | 10.56° C | 96% | 1010.9 hPa | 1.02 mm | - | - | - |
| 1777946256 | 10.56° C | 95% | 1010.8 hPa | 1.02 mm | - | - | - |
| 1777944456 | 10.56° C | 94% | 1011.2 hPa | 1.02 mm | - | - | - |
| 1777942656 | 10.56° C | 92% | 1011.3 hPa | 0.76 mm | - | - | - |
| 1777940855 | 10.56° C | 90% | 1011.6 hPa | 0.25 mm | - | - | - |
| 1777939056 | 11.11° C | 88% | 1011.7 hPa | 0 mm | - | - | - |
| 1777937255 | 10.56° C | 88% | 1011.7 hPa | 0 mm | - | - | - |
| 1777935455 | 10.56° C | 88% | 1011.5 hPa | 0 mm | - | - | - |
| 1777933656 | 10° C | 87% | 1011.6 hPa | 0 mm | - | - | - |
| 1777931856 | 10° C | 84% | 1012 hPa | 0 mm | - | - | - |
| 1777930056 | 10.56° C | 83% | 1012 hPa | 0 mm | - | - | - |
| 1777928256 | 11.11° C | 83% | 1012.4 hPa | 0 mm | - | - | - |
| 1777926455 | 11.11° C | 82% | 1012.4 hPa | 0 mm | - | - | - |
| 1777924655 | 11.67° C | 81% | 1012.4 hPa | 0 mm | - | - | - |
| 1777922857 | 12.22° C | 80% | 1012.4 hPa | 0 mm | - | - | - |
| 1777921055 | 12.78° C | 77% | 1012.5 hPa | 0 mm | - | - | - |
| 1777919256 | 13.33° C | 75% | 1012.4 hPa | 0 mm | - | - | - |
| 1777917456 | 13.89° C | 73% | 1012.4 hPa | 0 mm | - | - | - |
| 1777915656 | 14.44° C | 73% | 1012.2 hPa | 0 mm | - | - | - |
| 1777913855 | 15° C | 73% | 1012.5 hPa | 0 mm | - | - | - |
| 1777912056 | 14.44° C | 73% | 1012.8 hPa | 0 mm | - | - | - |
| 1777910256 | 15° C | 69% | 1013 hPa | 0 mm | - | - | - |
* Rain latest hour (hover to see other rain measurements)
** Current wind speed in m/s (hover to see current wind gust speed)